星链-36375(STARLINK-36375)

导读

STARLINK-36375是美国太空探索技术公司发射的星链计划卫星,发射于2026年2月20日,归属星链星座组网体系,主要用于为全球提供高速互联网覆盖服务,尤其服务偏远地区、海上、航空等传统网络难以覆盖的场景。作为星链低轨星座的新增节点,它进一步扩充了星座规模,提升星座全球服务的容量与稳定性,延续星链低轨卫星通信的技术路线,依托近地轨道降低通信传输延迟。

基本信息
目录编号:
67873
目录名称:
STARLINK-36783
国际标识:
2026-034Z
轨道中心:
EARTH
卫星名称:
星链-36375
卫星全名:
星链-36375(STARLINK-36375)
卫星状态:
在轨 (已飞行197 天)
发射日期:
2026-02-20 UTC
国别 :
美国 (US)
星等 :
--
轨道信息
数据来源 国际轨道数据
星历时间: 2026-09-05T07:24:03+0800
13小时前
查看轨道信息
半长轴: 6840.857km
偏心率: 0.0001082
轨道倾角: 53.158°
近地点辐角 98.484°
升交点赤经 86.613°
平近点角 261.628°
近地点: 461.979km
远地点: 463.461km
周期: 93.848分钟
每日圈数: 15.343945
详细信息
固有亮度:
5
最大亮度:
2.5
卫星平台:
Starlink V1.0
覆盖范围:
全球
运营商:
太空探索技术公司
运营商所在国:
美国
制造商(研发单位):
太空探索技术公司
制造商所在国:
美国
使用方式:
暂无
卫星简介
Starlink 计划是 SpaceX 推出的全球卫星互联网项目,通过发射低轨道卫星,为全球尤其是偏远地区提供高速、低延迟的互联网服务。自 2019 年起,Starlink 已部署数千颗卫星,旨在缩小全球数字鸿沟,推动互联网普及。该项目还为军事、航空等行业提供通信支持,带来广泛经济效益。
2D轨道图
3D轨道图
轨道高度分析图
轨道倾角分析图
轨道综合分析图
查看轨道综合分析图
交会数据列表
事件ID 空间交会对象 最接近时刻(TCA) 交会距离 交会风险概率(CRP) 交会风险指数(CRI) 操作
CDM_260908-011105-503406-787321
2026-09-08T
01:11:52+0000
1.227 km
极远距离
1.23159E-5 中风险 0.57
CDM_260907-212305-511106-787321
2026-09-07T
21:23:29+0000
2.624 km
极远距离
1.352273E-6 低风险 0.38
CDM_260905-192705-262106-787321
2026-09-05T
19:27:50+0000
2.942 km
极远距离
1.004003E-6 低风险 0.35